[[{"header":{"parameterUnit":"m.s-1","parameterCategory":2,"la1":30.2991,"la2":30.254,"lo1":-89.0895,"lo2":-89.0444,"dy":0.0017,"dx":0.0017,"nx":28,"ny":28,"refTime":"2024-08-27T21:00:00:Z","depth":"0","parameterNumber":2,"parameterNumberName":"U-component_of_CURRENTS"},"data":[0,0,0,0,0,0,0,0,0,0,0,0,0,0,0,0,0,0,0,0,0,0,0,0,0,0,0,0,0,0,0,0,0,0,0,0,0,0,0,0,0,0,0,0,0,0,0,0,0,0,0,0,0,0,0,0,0,0,-0.411,-0.4111,0,-0.4174,-0.4174,-0.4174,-0.4143,-0.4143,-0.4142,-0.4141,-0.4148,-0.4149,-0.415,0,0,0,0,0,0,0,0,0,0,0,0,0,-0.3946,-0.3948,-0.411,-0.4111,-0.4113,-0.4174,-0.4174,-0.4174,-0.4144,-0.4143,-0.4141,-0.414,-0.4148,-0.4149,-0.4151,0,0,0,0,0,0,0,0,0,0,0,0,0,-0.4007,-0.3949,-0.4109,-0.4111,-0.4112,-0.4174,-0.4174,-0.4174,-0.4144,-0.4142,-0.4141,-0.414,-0.4148,-0.4149,-0.4151,-0.4187,0,0,-0.4155,-0.4156,0,0,0,0,0,0,0,0,-0.4003,-0.4012,-0.4109,-0.4111,-0.4113,-0.4156,-0.4119,-0.4178,-0.4144,-0.4123,-0.4141,-0.4139,-0.4152,-0.4153,-0.4158,-0.4188,-0.4188,-0.4156,-0.4157,-0.4157,-0.4158,0,0,0,0,0,0,0,-0.3999,-0.4009,-0.4127,-0.4111,-0.4113,-0.4104,-0.411,-0.413,-0.4137,-0.4125,-0.4125,-0.4145,-0.4151,-0.4156,-0.4158,-0.4188,-0.4156,-0.4157,-0.4158,-0.4159,-0.4227,-0.4228,0,0,0,0,0,0,-0.401,-0.4005,-0.4125,-0.413,-0.4062,-0.4108,-0.4115,-0.4137,-0.4138,-0.414,-0.4146,-0.4144,-0.4154,-0.4156,-0.4158,-0.4111,-0.4157,-0.4159,-0.416,-0.4227,-0.4228,-0.4229,0,0,0,0,0,0,-0.4006,-0.402,-0.4122,-0.4074,-0.4088,-0.4114,-0.4138,-0.4139,-0.4139,-0.4157,-0.4155,-0.4145,-0.4153,-0.4156,-0.4181,-0.4115,-0.4159,-0.4161,-0.4226,-0.4227,-0.4228,-0.4076,0,0,0,0,0,0,-0.4001,-0.4018,-0.4024,-0.4076,-0.4091,-0.414,-0.414,-0.4142,-0.4158,-0.4154,-0.4156,-0.4155,-0.4152,-0.4179,-0.4183,-0.4117,-0.4162,-0.4224,-0.4226,-0.4228,-0.408,-0.4072,-0.4065,0,0,0,0,0,-0.3995,-0.3994,-0.4024,-0.4038,-0.4103,-0.4141,-0.4146,-0.4154,-0.4159,-0.415,-0.4171,-0.4154,-0.4192,-0.4182,-0.4186,-0.4119,-0.4224,-0.4226,-0.4228,-0.4083,-0.4074,-0.4065,0,0,0,0,0,0,-0.3904,-0.3995,-0.4026,-0.4049,-0.4092,-0.4138,-0.4128,-0.4158,-0.4168,-0.416,-0.4177,-0.4178,-0.4166,-0.4199,-0.4189,-0.4155,-0.4201,-0.4204,-0.409,-0.4081,-0.4074,-0.3978,-0.4163,0,0,0,0,0,-0.3901,-0.3926,-0.4011,-0.402,-0.4044,-0.4094,-0.4109,-0.4127,-0.4156,-0.4157,-0.4173,-0.4188,-0.4182,-0.4178,-0.4191,-0.4187,-0.4154,-0.4152,-0.4145,-0.4138,-0.407,-0.3995,-0.3971,-0.4235,-0.4235,-0.4235,0,0,-0.386,-0.3918,-0.3926,-0.4004,-0.4031,-0.4019,-0.4094,-0.4112,-0.4081,-0.4159,-0.412,-0.4165,-0.4183,-0.4157,-0.4154,-0.417,-0.4055,-0.414,-0.4132,-0.4068,-0.3994,-0.3967,-0.3943,-0.4237,-0.4236,-0.4236,0,0,-0.3755,-0.3853,-0.3816,-0.3863,-0.3926,-0.3967,-0.3976,-0.4038,-0.4042,-0.4056,-0.408,-0.409,-0.4119,-0.4088,-0.408,-0.4054,-0.4023,-0.4081,-0.3945,-0.3874,-0.3848,-0.3825,-0.3765,-0.3738,-0.4069,-0.4069,-0.4069,0,-0.3685,-0.3675,-0.3807,-0.3785,-0.3794,-0.3933,-0.3875,-0.3911,-0.397,-0.3956,-0.4022,-0.4019,-0.4057,-0.3961,-0.3955,-0.4018,-0.3987,-0.3962,-0.3852,-0.3829,-0.3807,-0.3752,-0.3723,-0.4062,-0.4063,-0.4064,-0.4064,0,-0.3533,-0.3546,-0.3532,-0.3551,-0.3589,-0.3576,-0.3666,-0.3691,-0.3749,-0.3776,-0.3749,-0.382,-0.3805,-0.3833,-0.3879,-0.3751,-0.3782,-0.3847,-0.3846,-0.3769,-0.372,-0.3692,-0.4052,-0.4054,-0.4057,-0.4058,0,0,-0.3289,-0.3395,-0.3382,-0.3394,-0.3468,-0.3497,-0.3461,-0.3463,-0.3448,-0.3505,-0.3441,-0.3457,-0.3525,-0.3523,-0.3594,-0.3542,-0.3404,-0.3622,-0.3621,-0.3509,-0.3235,-0.3195,-0.3163,-0.3443,-0.3437,-0.3433,-0.3263,0,-0.3098,-0.3055,-0.313,-0.3076,-0.3075,-0.3197,-0.3174,-0.3217,-0.3276,-0.3278,-0.3314,-0.3316,-0.3399,-0.3425,-0.3364,-0.3432,-0.3323,-0.3442,-0.337,-0.3366,-0.3295,-0.3126,-0.3015,-0.2847,-0.3237,-0.3232,-0.3229,0,-0.2882,-0.2907,-0.2831,-0.292,-0.292,-0.2903,-0.2937,-0.2937,-0.2974,-0.3022,-0.3001,-0.3084,-0.3029,-0.3143,-0.3056,-0.3133,-0.3124,-0.3155,-0.3151,-0.3126,-0.3272,-0.2991,-0.2784,-0.2778,-0.3188,-0.3191,-0.3194,0,-0.2697,-0.2694,-0.2649,-0.267,-0.2769,-0.2741,-0.2779,-0.2835,-0.2857,-0.2862,-0.2894,-0.2842,-0.2877,-0.2821,-0.2916,-0.2969,-0.2832,-0.2928,-0.2838,-0.2839,-0.2728,-0.2727,-0.2447,-0.275,-0.2751,-0.2751,-0.2751,0,-0.2499,-0.2466,-0.2577,-0.257,-0.253,-0.2634,-0.2599,-0.2642,-0.269,-0.2691,-0.2759,-0.2751,-0.28,-0.2783,-0.2805,-0.2734,-0.2726,-0.2723,-0.275,-0.2683,-0.268,-0.2665,-0.2732,-0.2745,-0.2746,-0.2747,-0.2748,0,-0.2334,-0.2389,-0.2371,-0.2445,-0.2462,-0.2451,-0.2534,-0.2525,-0.2596,-0.2594,-0.2596,-0.2663,-0.2632,-0.2666,-0.2623,-0.2615,-0.2507,-0.2521,-0.2448,-0.2465,-0.2365,-0.2431,-0.2168,-0.2109,-0.2341,-0.2338,-0.2336,0,-0.2252,-0.2227,-0.2293,-0.229,-0.2318,-0.2336,-0.2348,-0.2449,-0.2463,-0.2536,-0.2517,-0.2517,-0.2489,-0.2419,-0.2383,-0.2307,-0.2369,-0.2177,-0.2223,-0.2241,-0.2336,-0.2396,-0.2372,-0.2037,-0.2032,-0.2029,-0.2026,0,-0.2099,-0.2127,-0.2136,-0.2144,-0.215,-0.2177,-0.2211,-0.2221,-0.2325,-0.2341,-0.2338,-0.2318,-0.2267,-0.2158,-0.2103,-0.206,-0.2123,-0.2097,-0.2105,-0.2008,-0.2058,-0.2058,-0.2309,-0.1993,-0.1996,-0.1999,-0.2,-0.2002,-0.198,-0.196,-0.198,-0.1974,-0.199,-0.1996,-0.1964,-0.2024,-0.2031,-0.2032,-0.2107,-0.205,-0.2023,-0.1915,-0.1871,-0.1765,-0.1848,-0.1733,-0.1793,-0.1838,-0.1797,-0.1969,-0.1713,-0.1715,-0.1716,-0.1717,-0.1718,0,-0.182,-0.1818,-0.1809,-0.1801,-0.1763,-0.1833,-0.1846,-0.1796,-0.1749,-0.1801,-0.178,-0.1763,-0.166,-0.1662,-0.1577,-0.1505,-0.1484,-0.1486,-0.1528,-0.1504,-0.1609,-0.1615,-0.1336,-0.1336,-0.1336,-0.1336,-0.1336,-0.1336,-0.1731,-0.1671,-0.1681,-0.1576,-0.1567,-0.1477,-0.1455,-0.1413,-0.1425,-0.1377,-0.1397,-0.145,-0.1482,-0.1603,-0.1503,-0.1422,-0.1417,-0.1348,-0.1406,-0.1508,-0.1536,-0.1564,-0.1577,-0.1295,-0.1295,-0.1219,-0.1219,-0.1219]},{"header":{"parameterUnit":"m.s-1","parameterCategory":2,"la1":30.2991,"la2":30.254,"lo1":-89.0895,"lo2":-89.0444,"dy":0.0017,"dx":0.0017,"nx":28,"ny":28,"refTime":"2024-08-27T21:00:00:Z","depth":"0","parameterNumber":3,"parameterNumberName":"V-component_of_CURRENTS"},"data":[0,0,0,0,0,0,0,0,0,0,0,0,0,0,0,0,0,0,0,0,0,0,0,0,0,0,0,0,0,0,0,0,0,0,0,0,0,0,0,0,0,0,0,0,0,0,0,0,0,0,0,0,0,0,0,0,0,0,-0.0202,-0.02,0,-0.0005,-0.0003,-0.0001,0.0142,0.0143,0.0144,0.0145,0.0366,0.0371,0.0376,0,0,0,0,0,0,0,0,0,0,0,0,0,-0.0417,-0.0414,-0.0202,-0.02,-0.0198,-0.0006,-0.0003,0.0,0.0142,0.0143,0.0144,0.0145,0.0364,0.037,0.0376,0,0,0,0,0,0,0,0,0,0,0,0,0,-0.028,-0.0413,-0.0202,-0.0105,-0.0095,-0.0006,-0.0003,0.0001,0.0142,0.0143,0.0144,0.0146,0.0362,0.037,0.0377,0.0394,0,0,0.04,0.0403,0,0,0,0,0,0,0,0,-0.0288,-0.0272,-0.0122,-0.0112,-0.01,0.0043,0.0002,0.0133,0.0141,0.0054,0.0145,0.0147,0.0258,0.0274,0.0311,0.0404,0.0414,0.0401,0.0405,0.0408,0.041,0,0,0,0,0,0,0,-0.0298,-0.028,-0.0122,-0.012,-0.0106,-0.0059,-0.0038,0.0028,0.0148,0.0062,0.0072,0.009,0.0264,0.0303,0.0317,0.0417,0.04,0.0407,0.0412,0.0415,0.0592,0.0592,0,0,0,0,0,0,-0.033,-0.0289,-0.0128,-0.0116,-0.0195,-0.0057,-0.0033,-0.0002,0.0147,0.017,0.0088,0.0096,0.029,0.0308,0.0325,0.0359,0.0408,0.0415,0.042,0.0591,0.0592,0.0592,0,0,0,0,0,0,-0.0335,-0.0317,-0.0136,-0.0201,-0.0175,-0.0055,-0.0021,0.0001,0.0038,0.0166,0.0191,0.0103,0.0292,0.0315,0.0389,0.0368,0.0419,0.0425,0.0591,0.0591,0.0592,0.0423,0,0,0,0,0,0,-0.0342,-0.032,-0.0319,-0.0203,-0.0172,-0.0102,-0.0022,0.0003,0.0046,0.0057,0.0186,0.0209,0.0294,0.0377,0.0396,0.038,0.0431,0.0591,0.0591,0.0592,0.0428,0.0417,0.0408,0,0,0,0,0,-0.035,-0.0356,-0.032,-0.0301,-0.0171,-0.0103,-0.0084,0.0008,0.0044,0.0049,0.0148,0.0205,0.0394,0.0383,0.0405,0.039,0.0591,0.0591,0.0592,0.0433,0.042,0.0408,0,0,0,0,0,0,-0.0451,-0.0338,-0.0297,-0.0268,-0.0201,-0.008,-0.007,-0.001,0.0071,0.0082,0.0205,0.0234,0.0292,0.0368,0.0352,0.0448,0.0502,0.0507,0.0374,0.0363,0.0353,0.0324,0.0437,0,0,0,0,0,-0.0475,-0.0448,-0.034,-0.0323,-0.0295,-0.0189,-0.0154,-0.0093,-0.0003,0.0035,0.0126,0.0227,0.0311,0.0355,0.044,0.0483,0.0541,0.0493,0.0483,0.0473,0.0469,0.0524,0.0516,0.0594,0.0594,0.0594,0,0,-0.0512,-0.0448,-0.0433,-0.0344,-0.0283,-0.025,-0.0163,-0.0123,-0.0094,0.0043,0.01,0.019,0.0316,0.0373,0.0406,0.0433,0.0483,0.0474,0.0465,0.0466,0.0523,0.0515,0.0508,0.0594,0.0594,0.0594,0,0,-0.0568,-0.0516,-0.0507,-0.0459,-0.0381,-0.0316,-0.0314,-0.0205,-0.0158,-0.0095,0.0014,0.0088,0.0214,0.03,0.0361,0.0345,0.0426,0.0375,0.03,0.0351,0.0345,0.0339,0.0393,0.0394,0.0371,0.037,0.037,0,-0.0617,-0.0576,-0.0501,-0.0481,-0.0449,-0.0355,-0.0343,-0.0289,-0.0172,-0.0137,-0.01,0.0086,0.018,0.0263,0.0266,0.0318,0.0364,0.0325,0.0333,0.0329,0.0327,0.0383,0.0386,0.0362,0.0363,0.0364,0.0365,0,-0.0647,-0.0626,-0.0625,-0.056,-0.0528,-0.0507,-0.0423,-0.0392,-0.0331,-0.0259,-0.0177,-0.005,0.0065,0.01,0.0182,0.0218,0.0262,0.0305,0.0348,0.0308,0.0372,0.0377,0.0351,0.0353,0.0356,0.0358,0,0,-0.0703,-0.0653,-0.065,-0.0639,-0.0563,-0.0538,-0.0517,-0.045,-0.0426,-0.034,-0.0293,-0.0166,-0.0099,-0.0024,0.0077,0.0124,0.0142,0.0196,0.0203,0.0221,0.0255,0.0303,0.0316,0.0178,0.0178,0.0179,0.0301,0,-0.0738,-0.0737,-0.0691,-0.0695,-0.0683,-0.0613,-0.0595,-0.0537,-0.0469,-0.0409,-0.0301,-0.0216,-0.0146,-0.0088,-0.004,0.0118,0.0153,0.0105,0.0317,0.0324,0.0348,0.0322,0.0361,0.0475,0.0308,0.0309,0.0309,0,-0.0757,-0.0754,-0.0768,-0.0746,-0.0734,-0.0728,-0.0679,-0.065,-0.056,-0.0506,-0.0429,-0.0327,-0.0226,-0.017,0.0014,-0.002,0.0094,0.0195,0.0203,0.0312,0.0384,0.0496,0.0493,0.0655,0.032,0.0319,0.0318,0,-0.0811,-0.0799,-0.0817,-0.0807,-0.0773,-0.0771,-0.075,-0.068,-0.0652,-0.0565,-0.0526,-0.0403,-0.0313,-0.0184,0.0024,0.0021,0.0224,0.0253,0.0394,0.0399,0.0509,0.0523,0.0667,0.0351,0.0351,0.035,0.035,0,-0.0845,-0.0856,-0.0848,-0.0857,-0.0879,-0.0833,-0.0834,-0.0795,-0.0728,-0.0688,-0.0582,-0.0508,-0.0313,-0.0163,-0.0004,0.0219,0.0202,0.0377,0.0431,0.0453,0.046,0.0671,0.0731,0.0355,0.0354,0.0353,0.0352,0,-0.0892,-0.0885,-0.0909,-0.0904,-0.0905,-0.0923,-0.0899,-0.089,-0.0825,-0.0769,-0.0743,-0.0574,-0.0373,-0.0176,0.0075,0.0205,0.0509,0.0481,0.0493,0.0545,0.081,0.0858,0.1053,0.1157,0.0646,0.0647,0.0649,0,-0.0913,-0.0932,-0.0959,-0.0981,-0.0981,-0.0996,-0.1,-0.0948,-0.0926,-0.0792,-0.0762,-0.0566,-0.04,-0.0035,0.023,0.0498,0.0615,0.0681,0.0676,0.0827,0.0922,0.0943,0.1018,0.076,0.0762,0.0764,0.0766,0,-0.0955,-0.0967,-0.0991,-0.1043,-0.1065,-0.1087,-0.1081,-0.1073,-0.0989,-0.0915,-0.0758,-0.0615,-0.0258,0.0088,0.0421,0.0577,0.0799,0.0729,0.0891,0.1022,0.1052,0.1177,0.0677,0.0783,0.0781,0.078,0.0779,0.0779,-0.0981,-0.1014,-0.1047,-0.1093,-0.1128,-0.1149,-0.1144,-0.1104,-0.1044,-0.0887,-0.0753,-0.0492,-0.0025,0.0464,0.0654,0.1032,0.0975,0.1136,0.1184,0.1192,0.1288,0.0817,0.0977,0.0976,0.0976,0.0975,0.0975,0,-0.0996,-0.1034,-0.1088,-0.1136,-0.1176,-0.1182,-0.1171,-0.1123,-0.1024,-0.0843,-0.0657,-0.0126,0.0329,0.0747,0.1269,0.1479,0.1523,0.1565,0.1615,0.1672,0.1276,0.1277,0.1501,0.1501,0.1501,0.1501,0.15,0.15,-0.1002,-0.1053,-0.1085,-0.1154,-0.1187,-0.1193,-0.1174,-0.1078,-0.0934,-0.0597,-0.0283,-0.0022,0.0555,0.1362,0.1842,0.1881,0.2072,0.2032,0.2139,0.1873,0.1836,0.1801,0.1819,0.2153,0.2153,0.2528,0.2532,0.2535]}],[{"header":{"parameterUnit":"m.s-1","parameterCategory":2,"la1":30.2991,"la2":30.254,"lo1":-89.0895,"lo2":-89.0444,"dy":0.0017,"dx":0.0017,"nx":28,"ny":28,"refTime":"2024-08-27T21:00:00:Z","depth":"2","parameterNumber":2,"parameterNumberName":"U-component_of_CURRENTS"},"data":[0,0,0,0,0,0,0,0,0,0,0,0,0,0,0,0,0,0,0,0,0,0,0,0,0,0,0,0,0,0,0,0,0,0,0,0,0,0,0,0,0,0,0,0,0,0,0,0,0,0,0,0,0,0,0,0,0,0,-0.2872,-0.2871,0,-0.2869,-0.287,-0.2871,-0.2929,-0.293,-0.2931,-0.2931,-0.3045,-0.3048,-0.305,0,0,0,0,0,0,0,0,0,0,0,0,0,-0.2795,-0.2798,-0.2872,-0.2871,-0.287,-0.2869,-0.287,-0.2871,-0.2929,-0.293,-0.2931,-0.2931,-0.3044,-0.3047,-0.305,0,0,0,0,0,0,0,0,0,0,0,0,0,-0.2824,-0.2799,-0.2872,-0.2891,-0.2892,-0.2869,-0.287,-0.2871,-0.2929,-0.293,-0.2931,-0.2932,-0.3043,-0.3047,-0.3051,-0.3055,0,0,-0.3062,-0.3064,0,0,0,0,0,0,0,0,-0.2823,-0.2829,-0.2889,-0.2889,-0.289,-0.2891,-0.2884,-0.2935,-0.2929,-0.2926,-0.2931,-0.2932,-0.2997,-0.3004,-0.3015,-0.3061,-0.3066,-0.3062,-0.3065,-0.3066,-0.3067,0,0,0,0,0,0,0,-0.2821,-0.2828,-0.2882,-0.2888,-0.2888,-0.2853,-0.2861,-0.2894,-0.2967,-0.2926,-0.2928,-0.2911,-0.3,-0.3012,-0.3019,-0.3067,-0.3062,-0.3065,-0.3068,-0.3069,-0.3257,-0.326,0,0,0,0,0,0,-0.2806,-0.2827,-0.2881,-0.288,-0.2846,-0.2854,-0.2863,-0.2899,-0.2964,-0.2971,-0.291,-0.2913,-0.3005,-0.3014,-0.3023,-0.3064,-0.3066,-0.307,-0.3072,-0.3255,-0.3258,-0.3261,0,0,0,0,0,0,-0.2806,-0.2814,-0.2881,-0.2841,-0.2846,-0.2854,-0.2894,-0.2898,-0.2872,-0.2948,-0.296,-0.2874,-0.3006,-0.3018,-0.3091,-0.3067,-0.3071,-0.3075,-0.3251,-0.3256,-0.326,-0.3125,0,0,0,0,0,0,-0.2805,-0.2815,-0.2805,-0.2843,-0.2848,-0.2892,-0.2892,-0.2897,-0.2857,-0.2861,-0.2922,-0.2936,-0.3008,-0.3086,-0.3095,-0.3073,-0.3078,-0.3248,-0.3253,-0.3258,-0.3126,-0.3125,-0.3123,0,0,0,0,0,-0.2803,-0.2804,-0.2807,-0.281,-0.2848,-0.2892,-0.2894,-0.2906,-0.2854,-0.2877,-0.2928,-0.2932,-0.3126,-0.3091,-0.3101,-0.3079,-0.3245,-0.3252,-0.3258,-0.3127,-0.3125,-0.3123,0,0,0,0,0,0,-0.2765,-0.281,-0.2814,-0.2828,-0.2861,-0.2899,-0.289,-0.2866,-0.2912,-0.2917,-0.2956,-0.2979,-0.3035,-0.3093,-0.3052,-0.3164,-0.3189,-0.3197,-0.3086,-0.3084,-0.3083,-0.3008,-0.3081,0,0,0,0,0,-0.2748,-0.2769,-0.281,-0.282,-0.2834,-0.284,-0.2833,-0.2861,-0.2904,-0.2919,-0.2967,-0.303,-0.3072,-0.3104,-0.3185,-0.3224,-0.3208,-0.323,-0.3228,-0.3225,-0.3182,-0.3151,-0.3138,-0.3281,-0.3281,-0.3281,0,0,-0.2723,-0.2754,-0.2757,-0.2811,-0.2832,-0.2844,-0.2845,-0.2869,-0.2861,-0.2926,-0.2954,-0.302,-0.3086,-0.3159,-0.3187,-0.3196,-0.3185,-0.3233,-0.3229,-0.3187,-0.3156,-0.314,-0.3126,-0.3286,-0.3285,-0.3284,0,0,-0.2692,-0.2733,-0.273,-0.2767,-0.2804,-0.2832,-0.2819,-0.2873,-0.2885,-0.2926,-0.2967,-0.3002,-0.31,-0.3135,-0.3151,-0.3177,-0.3174,-0.3237,-0.3153,-0.3124,-0.3108,-0.3095,-0.3057,-0.3041,-0.3236,-0.3236,-0.3235,0,-0.2649,-0.2671,-0.2733,-0.2748,-0.2752,-0.2808,-0.2804,-0.2828,-0.29,-0.2904,-0.294,-0.3018,-0.3062,-0.3062,-0.3093,-0.3152,-0.3157,-0.3134,-0.3108,-0.3094,-0.3082,-0.3047,-0.3031,-0.323,-0.3231,-0.3231,-0.3232,0,-0.2618,-0.2631,-0.2642,-0.2681,-0.2708,-0.2737,-0.2785,-0.2823,-0.2828,-0.2846,-0.2876,-0.2952,-0.299,-0.3015,-0.3046,-0.3006,-0.3043,-0.3094,-0.3078,-0.3057,-0.3026,-0.301,-0.3222,-0.3224,-0.3225,-0.3227,0,0,-0.2526,-0.2599,-0.2597,-0.2607,-0.2681,-0.271,-0.272,-0.2746,-0.2726,-0.2798,-0.2759,-0.2806,-0.2843,-0.2866,-0.2921,-0.2887,-0.2792,-0.2953,-0.2954,-0.2852,-0.273,-0.2668,-0.2646,-0.2848,-0.2845,-0.2843,-0.2739,0,-0.2469,-0.2481,-0.2531,-0.2533,-0.2542,-0.262,-0.2624,-0.2666,-0.2703,-0.2718,-0.2732,-0.2752,-0.2787,-0.2812,-0.2774,-0.2817,-0.275,-0.2815,-0.2821,-0.282,-0.2714,-0.2625,-0.2457,-0.2343,-0.2724,-0.2722,-0.272,0,-0.2395,-0.2424,-0.2414,-0.2471,-0.2481,-0.2492,-0.253,-0.2549,-0.2587,-0.2617,-0.2625,-0.2673,-0.2639,-0.2677,-0.2631,-0.2689,-0.2671,-0.2676,-0.2674,-0.2638,-0.2728,-0.2436,-0.2301,-0.2695,-0.2697,-0.2699,-0.27,0,-0.2289,-0.2331,-0.2322,-0.2343,-0.2418,-0.2421,-0.2456,-0.2508,-0.2527,-0.2552,-0.2574,-0.2565,-0.2573,-0.2544,-0.2561,-0.2602,-0.2506,-0.2571,-0.2474,-0.2472,-0.2332,-0.2322,-0.2463,-0.2464,-0.2464,-0.2464,-0.2464,0,-0.2203,-0.2193,-0.2275,-0.2276,-0.2272,-0.2349,-0.235,-0.2392,-0.2443,-0.2447,-0.2512,-0.2505,-0.2541,-0.2523,-0.2517,-0.2439,-0.2462,-0.2398,-0.2416,-0.229,-0.2277,-0.2604,-0.2622,-0.246,-0.2461,-0.2462,-0.2463,0,-0.2077,-0.2129,-0.213,-0.2203,-0.2221,-0.222,-0.2298,-0.2301,-0.2372,-0.2377,-0.2383,-0.2447,-0.2416,-0.2436,-0.2396,-0.2375,-0.2319,-0.2279,-0.2124,-0.2122,-0.2312,-0.2325,-0.2134,-0.2131,-0.2128,-0.2125,-0.2123,0,-0.201,-0.1998,-0.2065,-0.2067,-0.2094,-0.2121,-0.2136,-0.2236,-0.2252,-0.2326,-0.231,-0.2316,-0.2282,-0.2218,-0.2164,-0.2091,-0.2203,-0.1915,-0.1925,-0.2228,-0.2266,-0.2285,-0.2302,-0.17,-0.1694,-0.169,-0.1686,0,-0.1884,-0.1911,-0.1923,-0.1936,-0.1949,-0.1978,-0.2016,-0.2027,-0.2126,-0.2142,-0.214,-0.212,-0.2067,-0.1922,-0.1863,-0.1811,-0.1919,-0.1821,-0.2142,-0.1825,-0.1814,-0.1854,-0.1885,-0.1647,-0.1651,-0.1653,-0.1656,-0.1657,-0.178,-0.1763,-0.1785,-0.1784,-0.1806,-0.1814,-0.1784,-0.184,-0.1846,-0.1839,-0.1911,-0.183,-0.1829,-0.163,-0.1546,-0.1491,-0.1626,-0.1583,-0.1598,-0.1618,-0.1601,-0.1587,-0.1373,-0.1375,-0.1377,-0.1379,-0.1381,0,-0.164,-0.1638,-0.1632,-0.1629,-0.1597,-0.1666,-0.1677,-0.1625,-0.1574,-0.1603,-0.1573,-0.141,-0.1316,-0.1325,-0.1162,-0.1141,-0.1144,-0.1114,-0.1124,-0.1163,-0.1197,-0.1162,-0.0816,-0.0814,-0.0813,-0.0811,0,0,-0.1563,-0.1509,-0.1514,-0.1421,-0.1414,-0.1332,-0.1308,-0.1259,-0.1249,-0.1165,-0.1129,-0.1224,-0.1269,-0.1041,-0.0991,-0.0874,-0.101,-0.0829,-0.1279,-0.1327,-0.136,-0.146,-0.1448,0,0,0,0,0]},{"header":{"parameterUnit":"m.s-1","parameterCategory":2,"la1":30.2991,"la2":30.254,"lo1":-89.0895,"lo2":-89.0444,"dy":0.0017,"dx":0.0017,"nx":28,"ny":28,"refTime":"2024-08-27T21:00:00:Z","depth":"2","parameterNumber":3,"parameterNumberName":"V-component_of_CURRENTS"},"data":[0,0,0,0,0,0,0,0,0,0,0,0,0,0,0,0,0,0,0,0,0,0,0,0,0,0,0,0,0,0,0,0,0,0,0,0,0,0,0,0,0,0,0,0,0,0,0,0,0,0,0,0,0,0,0,0,0,0,-0.0235,-0.0234,0,-0.0107,-0.0105,-0.0103,0.0012,0.0012,0.0013,0.0014,0.0236,0.0241,0.0246,0,0,0,0,0,0,0,0,0,0,0,0,0,-0.0337,-0.0335,-0.0235,-0.0234,-0.0233,-0.0108,-0.0105,-0.0103,0.0012,0.0012,0.0013,0.0014,0.0235,0.0241,0.0247,0,0,0,0,0,0,0,0,0,0,0,0,0,-0.0254,-0.0335,-0.0235,-0.0165,-0.0158,-0.0108,-0.0105,-0.0102,0.0011,0.0012,0.0014,0.0015,0.0233,0.024,0.0248,0.0272,0,0,0.0272,0.0275,0,0,0,0,0,0,0,0,-0.0258,-0.0249,-0.0177,-0.017,-0.0162,-0.0068,-0.006,0.0026,0.0011,-0.0046,0.0014,0.0015,0.0138,0.0154,0.0183,0.0283,0.0292,0.0272,0.0277,0.028,0.0282,0,0,0,0,0,0,0,-0.0264,-0.0254,-0.0178,-0.0176,-0.0167,-0.0127,-0.0113,-0.0043,0.0044,-0.0041,-0.0034,-0.0031,0.0144,0.0175,0.0189,0.0295,0.0272,0.0279,0.0284,0.0287,0.0482,0.0483,0,0,0,0,0,0,-0.0296,-0.0259,-0.0182,-0.0175,-0.0216,-0.0126,-0.0111,-0.0094,0.0042,0.0061,-0.0032,-0.0026,0.0161,0.018,0.0197,0.0247,0.028,0.0288,0.0292,0.0482,0.0482,0.0483,0,0,0,0,0,0,-0.0299,-0.029,-0.0187,-0.022,-0.0205,-0.0127,-0.0108,-0.0093,-0.0075,0.0047,0.007,-0.0033,0.0163,0.0187,0.0256,0.0257,0.0291,0.0298,0.0481,0.0482,0.0483,0.0339,0,0,0,0,0,0,-0.0302,-0.0291,-0.0297,-0.0222,-0.0204,-0.0165,-0.011,-0.0091,-0.0076,-0.0067,0.0054,0.0077,0.0166,0.0244,0.0264,0.0268,0.0304,0.0481,0.0482,0.0482,0.0343,0.0335,0.0328,0,0,0,0,0,-0.0306,-0.031,-0.0297,-0.0289,-0.0212,-0.0167,-0.0153,-0.0089,-0.0079,-0.007,0.0011,0.0072,0.0265,0.025,0.0273,0.028,0.048,0.0481,0.0482,0.0347,0.0337,0.0328,0,0,0,0,0,0,-0.0353,-0.0297,-0.0281,-0.0268,-0.0231,-0.015,-0.0138,-0.0114,-0.0046,-0.0034,0.0069,0.0098,0.016,0.0239,0.0219,0.0343,0.0387,0.0392,0.0276,0.0267,0.026,0.0243,0.0311,0,0,0,0,0,-0.0373,-0.0361,-0.0306,-0.03,-0.0283,-0.0224,-0.0204,-0.0164,-0.0097,-0.0067,0.0014,0.0109,0.0185,0.0237,0.032,0.038,0.0435,0.0405,0.0397,0.039,0.0395,0.0457,0.0454,0.0487,0.0487,0.0487,0,0,-0.0393,-0.0362,-0.0357,-0.0311,-0.0272,-0.0251,-0.0206,-0.0178,-0.0159,-0.0054,0.0001,0.0075,0.0191,0.0263,0.03,0.0329,0.0408,0.0392,0.0384,0.0394,0.0458,0.0454,0.0451,0.0488,0.0488,0.0487,0,0,-0.0423,-0.0397,-0.0397,-0.0369,-0.0327,-0.0285,-0.0292,-0.0222,-0.0187,-0.0139,-0.0056,0.001,0.0131,0.0218,0.0274,0.0273,0.0353,0.0306,0.0266,0.0324,0.0321,0.032,0.0364,0.0367,0.0315,0.0314,0.0314,0,-0.0453,-0.0439,-0.0393,-0.0384,-0.0368,-0.0313,-0.0309,-0.0267,-0.0185,-0.0156,-0.0134,0.0028,0.0112,0.0201,0.0209,0.0253,0.0297,0.0281,0.031,0.031,0.031,0.0357,0.0362,0.0308,0.0309,0.0309,0.031,0,-0.0475,-0.0469,-0.0465,-0.0433,-0.0412,-0.0398,-0.0341,-0.0314,-0.028,-0.0229,-0.0154,-0.0045,0.0057,0.009,0.015,0.0206,0.0237,0.0274,0.0319,0.0297,0.0349,0.0357,0.0298,0.0301,0.0303,0.0304,0,0,-0.0524,-0.049,-0.049,-0.0487,-0.0437,-0.042,-0.0394,-0.0346,-0.033,-0.0254,-0.0219,-0.0102,-0.005,0.0018,0.01,0.0157,0.0183,0.0212,0.0218,0.023,0.0302,0.0329,0.0341,0.0219,0.022,0.0221,0.0327,0,-0.0556,-0.0561,-0.0528,-0.0533,-0.0529,-0.0474,-0.0454,-0.0404,-0.0352,-0.0299,-0.0201,-0.0132,-0.0074,-0.003,0.003,0.0154,0.0202,0.015,0.0346,0.0352,0.0357,0.0351,0.0315,0.0408,0.0335,0.0337,0.0338,0,-0.0584,-0.0585,-0.0599,-0.0579,-0.0572,-0.0566,-0.0524,-0.0498,-0.0412,-0.0369,-0.0291,-0.0208,-0.0105,-0.0064,0.0112,0.0075,0.0173,0.0259,0.0266,0.0351,0.0395,0.0428,0.0426,0.0352,0.0351,0.035,0.0349,0,-0.0639,-0.0631,-0.0648,-0.0641,-0.061,-0.0607,-0.0588,-0.0521,-0.0496,-0.0411,-0.0379,-0.0252,-0.018,-0.0049,0.0124,0.012,0.0311,0.0333,0.0447,0.045,0.0492,0.0496,0.0444,0.0443,0.0443,0.0443,0.0443,0,-0.0678,-0.069,-0.0679,-0.0688,-0.0708,-0.0664,-0.0664,-0.0626,-0.0563,-0.0528,-0.0421,-0.0355,-0.0173,-0.0037,0.0107,0.0303,0.03,0.0441,0.0483,0.044,0.0439,0.0458,0.0458,0.0447,0.0446,0.0445,0.0445,0,-0.0725,-0.0717,-0.074,-0.0733,-0.0735,-0.075,-0.0728,-0.0719,-0.0656,-0.0608,-0.0583,-0.0425,-0.0244,-0.0062,0.017,0.0287,0.0468,0.0537,0.0466,0.0497,0.0568,0.056,0.067,0.0672,0.0673,0.0675,0.0676,0,-0.0746,-0.0764,-0.0788,-0.081,-0.081,-0.0823,-0.0827,-0.0777,-0.0757,-0.0636,-0.0611,-0.0435,-0.0288,0.0044,0.0277,0.0521,0.0525,0.0623,0.0615,0.0564,0.0594,0.0583,0.0573,0.0608,0.0609,0.0609,0.0609,0,-0.0788,-0.0799,-0.0821,-0.0872,-0.0895,-0.0915,-0.0912,-0.0906,-0.0828,-0.0762,-0.0623,-0.0495,-0.0184,0.0093,0.039,0.0524,0.0578,0.0641,0.0625,0.0552,0.0514,0.054,0.0531,0.0613,0.0613,0.0612,0.0612,0.0612,-0.0817,-0.0848,-0.0881,-0.0926,-0.0961,-0.0984,-0.0982,-0.0946,-0.0894,-0.0757,-0.0634,-0.041,-0.0162,0.0276,0.0479,0.0654,0.0658,0.0705,0.07,0.0696,0.0665,0.0632,0.0747,0.0747,0.0748,0.0748,0.0748,0,-0.084,-0.0875,-0.0926,-0.0976,-0.1018,-0.1022,-0.1016,-0.0976,-0.0891,-0.0736,-0.0569,-0.0279,0.0024,0.0268,0.0563,0.0739,0.0708,0.0748,0.0681,0.0677,0.0673,0.0638,0.0715,0.0715,0.0715,0.0716,0,0,-0.0852,-0.0902,-0.093,-0.1005,-0.1039,-0.1054,-0.104,-0.0956,-0.0832,-0.0655,-0.048,-0.0244,0.0052,0.0258,0.0464,0.0606,0.0591,0.0603,0.0612,0.0504,0.0498,0.063,0.057,0,0,0,0,0]}],[{"header":{"parameterUnit":"m.s-1","parameterCategory":2,"la1":30.2991,"la2":30.254,"lo1":-89.0895,"lo2":-89.0444,"dy":0.0017,"dx":0.0017,"nx":28,"ny":28,"refTime":"2024-08-27T21:00:00:Z","depth":"4","parameterNumber":2,"parameterNumberName":"U-component_of_CURRENTS"},"data":[0,0,0,0,0,0,0,0,0,0,0,0,0,0,0,0,0,0,0,0,0,0,0,0,0,0,0,0,0,0,0,0,0,0,0,0,0,0,0,0,0,0,0,0,0,0,0,0,0,0,0,0,0,0,0,0,0,0,-0.1502,-0.1502,0,-0.1585,-0.1586,-0.1587,-0.1643,-0.1643,-0.1643,-0.1642,-0.1686,-0.1687,-0.1688,0,0,0,0,0,0,0,0,0,0,0,0,0,-0.1483,-0.1483,-0.1502,-0.1502,-0.1503,-0.1584,-0.1586,-0.1588,-0.1643,-0.1643,-0.1642,-0.1642,-0.1685,-0.1687,-0.1688,0,0,0,0,0,0,0,0,0,0,0,0,0,-0.1527,-0.1483,-0.1502,-0.1536,-0.1539,-0.1584,-0.1586,-0.1588,-0.1643,-0.1643,-0.1642,-0.1642,-0.1685,-0.1687,-0.1689,-0.1706,0,0,-0.1695,-0.1696,0,0,0,0,0,0,0,0,-0.1524,-0.1528,-0.153,-0.1533,-0.1537,-0.1598,-0.1595,-0.1624,-0.1643,-0.161,-0.1642,-0.1642,-0.1649,-0.1654,-0.1679,-0.1708,-0.171,-0.1695,-0.1696,-0.1697,-0.1698,0,0,0,0,0,0,0,-0.1521,-0.1525,-0.1541,-0.153,-0.1535,-0.1577,-0.1583,-0.1602,-0.1634,-0.1613,-0.1615,-0.1615,-0.1651,-0.1677,-0.168,-0.1711,-0.1695,-0.1697,-0.1698,-0.1699,-0.1791,-0.1792,0,0,0,0,0,0,-0.1494,-0.1522,-0.1538,-0.1543,-0.1523,-0.1577,-0.1584,-0.1584,-0.1635,-0.1641,-0.1615,-0.1617,-0.1674,-0.1678,-0.1682,-0.1746,-0.1697,-0.1699,-0.17,-0.1789,-0.1791,-0.1792,0,0,0,0,0,0,-0.1493,-0.1494,-0.1535,-0.1529,-0.1537,-0.1576,-0.1576,-0.1585,-0.1634,-0.1636,-0.1642,-0.1656,-0.1674,-0.1679,-0.1727,-0.1746,-0.17,-0.1702,-0.1788,-0.179,-0.1792,-0.1848,0,0,0,0,0,0,-0.1492,-0.1494,-0.151,-0.1527,-0.1536,-0.1584,-0.1576,-0.1587,-0.1629,-0.1634,-0.1672,-0.1675,-0.1674,-0.1725,-0.1729,-0.1748,-0.1703,-0.1786,-0.1789,-0.1791,-0.1845,-0.1852,-0.1858,0,0,0,0,0,-0.1491,-0.1517,-0.151,-0.1513,-0.1548,-0.1585,-0.1596,-0.1627,-0.1631,-0.1668,-0.1692,-0.1675,-0.1742,-0.1728,-0.1733,-0.1753,-0.1785,-0.1788,-0.1791,-0.1842,-0.185,-0.1858,0,0,0,0,0,0,-0.1528,-0.1524,-0.1518,-0.1543,-0.1567,-0.1592,-0.1632,-0.1643,-0.1694,-0.1706,-0.1703,-0.1709,-0.1754,-0.175,-0.1735,-0.1785,-0.1756,-0.176,-0.1793,-0.1801,-0.1807,-0.182,-0.1705,0,0,0,0,0,-0.1535,-0.1548,-0.1553,-0.1576,-0.1589,-0.1613,-0.1639,-0.1659,-0.169,-0.1714,-0.1732,-0.1751,-0.1768,-0.1783,-0.1801,-0.1838,-0.182,-0.185,-0.1856,-0.1862,-0.1876,-0.1874,-0.1881,-0.1802,-0.1802,-0.1801,0,0,-0.1554,-0.1553,-0.1563,-0.1584,-0.1607,-0.1641,-0.1632,-0.1683,-0.1718,-0.1708,-0.1776,-0.1781,-0.1784,-0.1825,-0.1843,-0.1826,-0.1872,-0.1865,-0.187,-0.1881,-0.1877,-0.1885,-0.1892,-0.1803,-0.1803,-0.1803,0,0,-0.1591,-0.16,-0.1621,-0.1643,-0.1674,-0.1691,-0.1707,-0.1745,-0.1775,-0.183,-0.1823,-0.1848,-0.1884,-0.1886,-0.1889,-0.1944,-0.1908,-0.1943,-0.1987,-0.1985,-0.1991,-0.1997,-0.1966,-0.1968,-0.1944,-0.1944,-0.1944,0,-0.1619,-0.163,-0.1639,-0.1668,-0.1688,-0.1712,-0.1748,-0.1787,-0.1838,-0.1856,-0.1861,-0.191,-0.1912,-0.1941,-0.1961,-0.1958,-0.1944,-0.1956,-0.1993,-0.1998,-0.2003,-0.197,-0.1972,-0.1947,-0.1946,-0.1946,-0.1946,0,-0.1654,-0.1681,-0.1703,-0.1732,-0.1768,-0.1807,-0.184,-0.1887,-0.1915,-0.1935,-0.1985,-0.1998,-0.2015,-0.2018,-0.2012,-0.2042,-0.2015,-0.2002,-0.1972,-0.2014,-0.1977,-0.1978,-0.1951,-0.195,-0.1949,-0.1948,0,0,-0.1655,-0.1715,-0.1723,-0.1738,-0.1802,-0.1824,-0.1896,-0.1942,-0.197,-0.2029,-0.2056,-0.2099,-0.2097,-0.2101,-0.2089,-0.2097,-0.2108,-0.2072,-0.2071,-0.2039,-0.2088,-0.1943,-0.1929,-0.2104,-0.2105,-0.2106,-0.2041,0,-0.1675,-0.1724,-0.176,-0.1817,-0.1836,-0.1888,-0.194,-0.1992,-0.2032,-0.2069,-0.2094,-0.2119,-0.2129,-0.213,-0.2148,-0.2117,-0.2117,-0.2126,-0.2054,-0.2052,-0.1916,-0.1928,-0.2109,-0.2042,-0.2042,-0.2042,-0.2042,0,-0.1671,-0.1705,-0.176,-0.1821,-0.1838,-0.1889,-0.1951,-0.2003,-0.2067,-0.2096,-0.2142,-0.2153,-0.2183,-0.2175,-0.2174,-0.2181,-0.2148,-0.2126,-0.2122,-0.1972,-0.1909,-0.1995,-0.2043,-0.2043,-0.2043,-0.2043,-0.2043,0,-0.1605,-0.1691,-0.1728,-0.1753,-0.1841,-0.1882,-0.1935,-0.2007,-0.204,-0.2106,-0.2126,-0.2173,-0.2179,-0.218,-0.2152,-0.2163,-0.2128,-0.2123,-0.1964,-0.1952,-0.2078,-0.2073,-0.212,-0.212,-0.212,-0.212,-0.2121,0,-0.1564,-0.1595,-0.1704,-0.1719,-0.1768,-0.1845,-0.1899,-0.1956,-0.2028,-0.2045,-0.2128,-0.2132,-0.2185,-0.2173,-0.2152,-0.2049,-0.2124,-0.197,-0.1929,-0.2099,-0.2098,-0.2076,-0.2072,-0.2118,-0.2118,-0.2119,-0.2119,0,-0.1463,-0.1538,-0.1584,-0.1695,-0.1731,-0.1762,-0.1871,-0.1894,-0.1984,-0.2008,-0.2027,-0.2098,-0.2071,-0.2093,-0.2065,-0.2013,-0.1947,-0.1891,-0.2055,-0.2025,-0.1772,-0.1772,-0.1702,-0.1696,-0.1692,-0.1688,-0.1684,0,-0.1408,-0.1423,-0.1546,-0.1573,-0.1628,-0.1697,-0.1733,-0.1849,-0.1872,-0.1958,-0.1944,-0.1965,-0.1987,-0.1834,-0.1882,-0.1816,-0.1801,-0.1761,-0.1794,-0.1764,-0.1732,-0.1739,-0.1745,-0.1677,-0.1676,-0.1674,-0.1673,0,-0.1305,-0.1366,-0.1406,-0.1467,-0.1518,-0.1568,-0.1635,-0.1638,-0.1744,-0.1843,-0.1798,-0.1776,-0.1737,-0.1719,-0.1675,-0.1639,-0.179,-0.1712,-0.1722,-0.1753,-0.1732,-0.1707,-0.1718,-0.1657,-0.1659,-0.1661,-0.1662,0,-0.123,-0.1236,-0.1301,-0.1337,-0.14,-0.1414,-0.1472,-0.1492,-0.1531,-0.1636,-0.1608,-0.1636,-0.17,-0.1623,-0.1585,-0.1533,-0.1518,-0.1484,-0.1506,-0.1525,-0.15,-0.145,-0.1246,0,0,0,0,0,-0.1146,-0.1137,-0.1165,-0.1199,-0.1257,-0.1294,-0.1388,-0.1451,-0.1554,-0.1469,-0.1537,-0.149,-0.1434,-0.1463,-0.1369,-0.1507,-0.1528,-0.1394,-0.1503,-0.1566,-0.1585,-0.1574,0,0,0,0,0,0,-0.1088,-0.1107,-0.1117,-0.1075,-0.1069,-0.1118,-0.1173,-0.1249,-0.1224,-0.133,-0.1305,-0.1388,-0.1356,-0.1442,-0.1328,-0.1335,-0.1373,-0.1426,-0.1421,-0.1555,-0.1573,-0.1588,-0.1583,0,0,0,0,0]},{"header":{"parameterUnit":"m.s-1","parameterCategory":2,"la1":30.2991,"la2":30.254,"lo1":-89.0895,"lo2":-89.0444,"dy":0.0017,"dx":0.0017,"nx":28,"ny":28,"refTime":"2024-08-27T21:00:00:Z","depth":"4","parameterNumber":3,"parameterNumberName":"V-component_of_CURRENTS"},"data":[0,0,0,0,0,0,0,0,0,0,0,0,0,0,0,0,0,0,0,0,0,0,0,0,0,0,0,0,0,0,0,0,0,0,0,0,0,0,0,0,0,0,0,0,0,0,0,0,0,0,0,0,0,0,0,0,0,0,-0.0259,-0.0259,0,-0.021,-0.0209,-0.0208,-0.0155,-0.0155,-0.0154,-0.0154,-0.0097,-0.0096,-0.0095,0,0,0,0,0,0,0,0,0,0,0,0,0,-0.0273,-0.0272,-0.0259,-0.0259,-0.0258,-0.021,-0.0209,-0.0208,-0.0155,-0.0155,-0.0154,-0.0154,-0.0098,-0.0096,-0.0095,0,0,0,0,0,0,0,0,0,0,0,0,0,-0.0244,-0.0272,-0.0259,-0.023,-0.0228,-0.021,-0.0209,-0.0207,-0.0155,-0.0155,-0.0154,-0.0154,-0.0098,-0.0096,-0.0094,-0.009,0,0,-0.0088,-0.0088,0,0,0,0,0,0,0,0,-0.0246,-0.0243,-0.0235,-0.0232,-0.023,-0.0193,-0.0193,-0.017,-0.0155,-0.0177,-0.0154,-0.0154,-0.0133,-0.0128,-0.0111,-0.0087,-0.0085,-0.0088,-0.0087,-0.0086,-0.0086,0,0,0,0,0,0,0,-0.0248,-0.0245,-0.0234,-0.0235,-0.0232,-0.0209,-0.0204,-0.0188,-0.0153,-0.0175,-0.0172,-0.0176,-0.013,-0.0113,-0.011,-0.0084,-0.0088,-0.0087,-0.0085,-0.0085,-0.0047,-0.0047,0,0,0,0,0,0,-0.0268,-0.0247,-0.0235,-0.0233,-0.0243,-0.021,-0.0204,-0.0201,-0.0153,-0.0147,-0.0176,-0.0174,-0.0117,-0.0112,-0.0108,-0.0085,-0.0086,-0.0084,-0.0083,-0.0047,-0.0047,-0.0047,0,0,0,0,0,0,-0.0268,-0.0267,-0.0237,-0.0243,-0.0239,-0.0211,-0.0207,-0.02,-0.0191,-0.0155,-0.0148,-0.0176,-0.0116,-0.011,-0.0094,-0.0083,-0.0084,-0.0082,-0.0046,-0.0047,-0.0047,-0.0049,0,0,0,0,0,0,-0.0268,-0.0267,-0.0277,-0.0245,-0.024,-0.0231,-0.0207,-0.0199,-0.0196,-0.0192,-0.0152,-0.0146,-0.0116,-0.0098,-0.0093,-0.008,-0.008,-0.0046,-0.0047,-0.0047,-0.0049,-0.005,-0.005,0,0,0,0,0,-0.0269,-0.0275,-0.0277,-0.0277,-0.0252,-0.0232,-0.0227,-0.0202,-0.0197,-0.0192,-0.0165,-0.0148,-0.0096,-0.0096,-0.009,-0.0077,-0.0046,-0.0046,-0.0047,-0.0049,-0.0049,-0.005,0,0,0,0,0,0,-0.0282,-0.027,-0.0271,-0.0274,-0.0262,-0.0226,-0.0222,-0.0212,-0.0187,-0.0184,-0.015,-0.0142,-0.0124,-0.0108,-0.011,-0.0069,-0.0068,-0.0067,-0.0072,-0.0072,-0.0072,-0.0066,-0.0079,0,0,0,0,0,-0.0295,-0.0298,-0.0283,-0.0287,-0.0282,-0.0258,-0.0251,-0.0235,-0.021,-0.0198,-0.0173,-0.0146,-0.012,-0.0104,-0.0082,-0.0062,-0.0031,-0.0051,-0.0052,-0.0052,-0.0044,0.0021,0.0028,-0.0048,-0.0048,-0.0048,0,0,-0.0306,-0.0299,-0.0303,-0.0292,-0.0276,-0.0268,-0.025,-0.0239,-0.0229,-0.0198,-0.0176,-0.0152,-0.0119,-0.009,-0.008,-0.0074,-0.0019,-0.0053,-0.0053,-0.0045,0.0021,0.0029,0.0036,-0.0048,-0.0048,-0.0048,0,0,-0.0319,-0.0317,-0.0323,-0.0313,-0.0301,-0.0283,-0.0287,-0.0258,-0.024,-0.0227,-0.0194,-0.0159,-0.0138,-0.0087,-0.0066,-0.0059,-0.003,-0.0067,-0.0053,0.001,0.0017,0.0024,0.0058,0.0069,-0.0059,-0.0059,-0.0059,0,-0.0336,-0.0338,-0.0322,-0.0319,-0.0315,-0.0294,-0.0294,-0.0271,-0.0242,-0.0224,-0.0226,-0.0158,-0.0127,-0.0067,-0.0059,-0.0056,-0.0033,-0.0051,0.0012,0.0019,0.0027,0.006,0.0071,-0.0059,-0.0059,-0.0059,-0.0059,0,-0.0346,-0.0352,-0.035,-0.0342,-0.0332,-0.0328,-0.0301,-0.0287,-0.0275,-0.0247,-0.0203,-0.0152,-0.0108,-0.0091,-0.0071,-0.0005,-0.0011,-0.0001,0.0018,0.0035,0.0068,0.008,-0.006,-0.006,-0.006,-0.006,0,0,-0.0375,-0.0364,-0.0366,-0.037,-0.0346,-0.034,-0.0319,-0.029,-0.0277,-0.0236,-0.0206,-0.0136,-0.0106,-0.0079,-0.004,0.0024,0.0096,0.003,0.0034,0.0071,0.0212,0.0181,0.0191,0.0114,0.0117,0.0119,0.0209,0,-0.0393,-0.0402,-0.0386,-0.0393,-0.0395,-0.0365,-0.0349,-0.0317,-0.0287,-0.0251,-0.0176,-0.0139,-0.0103,-0.0083,-0.0009,0.0061,0.0129,0.0069,0.0184,0.0187,0.0165,0.0205,0.0126,0.0218,0.0221,0.0223,0.0225,0,-0.041,-0.0415,-0.043,-0.0423,-0.042,-0.042,-0.0393,-0.0376,-0.0309,-0.0284,-0.0217,-0.0169,-0.0069,-0.0049,0.0109,0.0063,0.014,0.0201,0.0207,0.0191,0.0179,0.0202,0.0246,0.0245,0.0243,0.0242,0.024,0,-0.0442,-0.0445,-0.0463,-0.0461,-0.0447,-0.0448,-0.0439,-0.0389,-0.0374,-0.0304,-0.0285,-0.0167,-0.0119,0.0005,0.0128,0.0119,0.0292,0.0297,0.0348,0.0345,0.0346,0.0338,0.0424,0.0424,0.0424,0.0424,0.0423,0,-0.0462,-0.0478,-0.0486,-0.0496,-0.0519,-0.049,-0.0496,-0.0468,-0.0422,-0.0397,-0.0308,-0.0258,-0.0103,0.0009,0.0127,0.0267,0.0296,0.0362,0.0378,0.0338,0.0328,0.0354,0.0344,0.0427,0.0426,0.0425,0.0425,0,-0.0487,-0.0492,-0.052,-0.0528,-0.0537,-0.0555,-0.0554,-0.0549,-0.0502,-0.0468,-0.0449,-0.0321,-0.0177,-0.0025,0.0171,0.0251,0.0395,0.044,0.0371,0.0378,0.0404,0.0394,0.0507,0.0507,0.0507,0.0507,0.0507,0,-0.0497,-0.0516,-0.0559,-0.0587,-0.0597,-0.062,-0.0633,-0.0599,-0.0586,-0.0498,-0.0478,-0.0344,-0.0245,0.0011,0.0166,0.038,0.0411,0.0471,0.0463,0.0415,0.0419,0.0408,0.0398,0.0507,0.0507,0.0507,0.0507,0,-0.0518,-0.0543,-0.0569,-0.0631,-0.0666,-0.0693,-0.0704,-0.0698,-0.0643,-0.0608,-0.0482,-0.0341,-0.0184,0.0011,0.0167,0.0326,0.0423,0.0471,0.0472,0.0466,0.0416,0.0417,0.0407,0.0506,0.0506,0.0506,0.0507,0,-0.054,-0.0569,-0.0614,-0.0664,-0.0717,-0.0744,-0.0744,-0.0705,-0.0679,-0.0571,-0.0529,-0.0343,-0.0232,-0.0015,0.0138,0.0276,0.0314,0.0354,0.0362,0.0364,0.029,0.0204,0.0258,0,0,0,0,0,-0.055,-0.0585,-0.0638,-0.0693,-0.0748,-0.077,-0.0778,-0.0762,-0.0711,-0.0629,-0.0572,-0.0415,-0.0173,-0.0058,0.0077,0.012,0.0317,0.0279,0.0361,0.0505,0.0506,0.0441,0,0,0,0,0,0,-0.0559,-0.0611,-0.0637,-0.0708,-0.0746,-0.0794,-0.0796,-0.0762,-0.0698,-0.0627,-0.0491,-0.0402,-0.0164,-0.0253,0.0073,0.0116,0.0182,0.04,0.0402,0.0505,0.0505,0.0506,0.0439,0,0,0,0,0]}]]